Location: Newark
(35.8833°N, 14.5000°E)
Time: 15:23:57
(UTC+00:00)

Altair - Pass Details

Date: 24 November 2019
Orbit: 1502 x 1682 km, 47.2° (Epoch: 14 December)

Event Time Altitude Azimuth Distance (km) Brightness Sun altitude
Rises 08:11:56 0° 299° (WNW) 4,661 9.5 22.5°
Reaches altitude 10° 08:15:11 10° 292° (WNW) 3,693 9.1 22.9°
Maximum altitude 08:23:32 38° 228° (SW) 2,202 8.7 24.0°
Drops below altitude 10° 08:32:09 10° 164° (SSE) 3,801 11.0 25.0°
Sets 08:35:35 0° 157° (SSE) 4,811 11.4 25.4°
